����������;��������(kWh)
2018-11-26 00:00;83,7
2018-11-26 00:15;82,05
2018-11-26 00:30;83,7
2018-11-26 00:45;83,25
2018-11-26 01:00;83,15
2018-11-26 01:15;83,15
2018-11-26 01:30;82,05
2018-11-26 01:45;82,45
2018-11-26 02:00;83,65
2018-11-26 02:15;84,45
2018-11-26 02:30;86,2
2018-11-26 02:45;83,1
2018-11-26 03:00;84,15
2018-11-26 03:15;92,7
2018-11-26 03:30;95,8
2018-11-26 03:45;96,45
2018-11-26 04:00;97,7
2018-11-26 04:15;96,1
2018-11-26 04:30;95,9
2018-11-26 04:45;95,35
2018-11-26 05:00;85,95
2018-11-26 05:15;81,15
2018-11-26 05:30;89,1
2018-11-26 05:45;111,35
2018-11-26 06:00;114,1
2018-11-26 06:15;109,3
2018-11-26 06:30;102,9
2018-11-26 06:45;93,05
2018-11-26 07:00;91,35
2018-11-26 07:15;94,6
2018-11-26 07:30;101,05
2018-11-26 07:45;156,4
2018-11-26 08:00;129,6
2018-11-26 08:15;137,45
2018-11-26 08:30;127,75
2018-11-26 08:45;145,85
2018-11-26 09:00;136,2
2018-11-26 09:15;150,15
2018-11-26 09:30;149,75
2018-11-26 09:45;160,1
2018-11-26 10:00;164,5
2018-11-26 10:15;166,05
2018-11-26 10:30;168,65
2018-11-26 10:45;182,4
2018-11-26 11:00;188,3
2018-11-26 11:15;189,6
2018-11-26 11:30;190,2
2018-11-26 11:45;193,5
2018-11-26 12:00;188,5
2018-11-26 12:15;190,6
2018-11-26 12:30;190,05
2018-11-26 12:45;186,75
2018-11-26 13:00;182,35
2018-11-26 13:15;193
2018-11-26 13:30;182,2
2018-11-26 13:45;191,7
2018-11-26 14:00;191,85
2018-11-26 14:15;185,15
2018-11-26 14:30;179,7
2018-11-26 14:45;187,45
2018-11-26 15:00;165,15
2018-11-26 15:15;176,3
2018-11-26 15:30;173
2018-11-26 15:45;161,55
2018-11-26 16:00;157,95
2018-11-26 16:15;154,55
2018-11-26 16:30;163,45
2018-11-26 16:45;174,1
2018-11-26 17:00;161,5
2018-11-26 17:15;155,05
2018-11-26 17:30;152,45
2018-11-26 17:45;158,4
2018-11-26 18:00;159,35
2018-11-26 18:15;154,6
2018-11-26 18:30;154,7
2018-11-26 18:45;155,7
2018-11-26 19:00;154,15
2018-11-26 19:15;144
2018-11-26 19:30;139,65
2018-11-26 19:45;132,35
2018-11-26 20:00;128,8
2018-11-26 20:15;126,35
2018-11-26 20:30;120,9
2018-11-26 20:45;115,1
2018-11-26 21:00;112,7
2018-11-26 21:15;106,8
2018-11-26 21:30;105,75
2018-11-26 21:45;100,5
2018-11-26 22:00;96,9
2018-11-26 22:15;94,7
2018-11-26 22:30;93,3
2018-11-26 22:45;92,55
2018-11-26 23:00;94,65
2018-11-26 23:15;91,9
2018-11-26 23:30;89,2
2018-11-26 23:45;91,2
2018-11-27 00:00;88,8
2018-11-27 00:15;88,35
2018-11-27 00:30;84,7
2018-11-27 00:45;85,95
2018-11-27 01:00;85,05
2018-11-27 01:15;86,5
2018-11-27 01:30;85,7
2018-11-27 01:45;83,75
2018-11-27 02:00;83,3
2018-11-27 02:15;82,8
2018-11-27 02:30;84,15
2018-11-27 02:45;84
2018-11-27 03:00;83
2018-11-27 03:15;85,05
2018-11-27 03:30;87,4
2018-11-27 03:45;85,5
2018-11-27 04:00;87,3
2018-11-27 04:15;95,45
2018-11-27 04:30;97,35
2018-11-27 04:45;99,4
2018-11-27 05:00;100,2
2018-11-27 05:15;94,5
2018-11-27 05:30;88,9
2018-11-27 05:45;103,8
2018-11-27 06:00;117,8
2018-11-27 06:15;117,2
2018-11-27 06:30;105,85
2018-11-27 06:45;98,75
2018-11-27 07:00;98,95
2018-11-27 07:15;102,85
2018-11-27 07:30;100,35
2018-11-27 07:45;160,1
2018-11-27 08:00;114,55
2018-11-27 08:15;125,65
2018-11-27 08:30;128,85
2018-11-27 08:45;139,65
2018-11-27 09:00;140,6
2018-11-27 09:15;146,7
2018-11-27 09:30;146,15
2018-11-27 09:45;150,8
2018-11-27 10:00;153,95
2018-11-27 10:15;151,9
2018-11-27 10:30;160,05
2018-11-27 10:45;158,55
2018-11-27 11:00;170,75
2018-11-27 11:15;171,65
2018-11-27 11:30;176,95
2018-11-27 11:45;172,55
2018-11-27 12:00;175,5
2018-11-27 12:15;173,8
2018-11-27 12:30;161
2018-11-27 12:45;172,2
2018-11-27 13:00;160,5
2018-11-27 13:15;164,9
2018-11-27 13:30;165,45
2018-11-27 13:45;159,85
2018-11-27 14:00;171,5
2018-11-27 14:15;172,45
2018-11-27 14:30;173,9
2018-11-27 14:45;160,9
2018-11-27 15:00;159,45
2018-11-27 15:15;164,3
2018-11-27 15:30;155,9
2018-11-27 15:45;153,7
2018-11-27 16:00;144,35
2018-11-27 16:15;147,6
2018-11-27 16:30;144,45
2018-11-27 16:45;140,8
2018-11-27 17:00;136,95
2018-11-27 17:15;135,6
2018-11-27 17:30;135,6
2018-11-27 17:45;136,35
2018-11-27 18:00;136,2
2018-11-27 18:15;134,95
2018-11-27 18:30;135,75
2018-11-27 18:45;140,95
2018-11-27 19:00;139,55
2018-11-27 19:15;140,1
2018-11-27 19:30;136,75
2018-11-27 19:45;137,8
2018-11-27 20:00;129
2018-11-27 20:15;126,6
2018-11-27 20:30;123,85
2018-11-27 20:45;118,9
2018-11-27 21:00;117,3
2018-11-27 21:15;114,25
2018-11-27 21:30;108,2
2018-11-27 21:45;104,35
2018-11-27 22:00;100,5
2018-11-27 22:15;98,55
2018-11-27 22:30;98,4
2018-11-27 22:45;97,6
2018-11-27 23:00;98,55
2018-11-27 23:15;89,25
2018-11-27 23:30;88,25
2018-11-27 23:45;89,8
2018-11-28 00:00;85,95
2018-11-28 00:15;86,65
2018-11-28 00:30;86,55
2018-11-28 00:45;88,5
2018-11-28 01:00;84,75
2018-11-28 01:15;93
2018-11-28 01:30;95,25
2018-11-28 01:45;96,7
2018-11-28 02:00;98,35
2018-11-28 02:15;94,5
2018-11-28 02:30;88,6
2018-11-28 02:45;84,4
2018-11-28 03:00;88,55
2018-11-28 03:15;89,25
2018-11-28 03:30;87
2018-11-28 03:45;86,5
2018-11-28 04:00;88,6
2018-11-28 04:15;88,1
2018-11-28 04:30;89,1
2018-11-28 04:45;89,6
2018-11-28 05:00;90,65
2018-11-28 05:15;86,3
2018-11-28 05:30;81,85
2018-11-28 05:45;88,4
2018-11-28 06:00;87,15
2018-11-28 06:15;101,05
2018-11-28 06:30;113,5
2018-11-28 06:45;108,25
2018-11-28 07:00;103,5
2018-11-28 07:15;98,65
2018-11-28 07:30;102,15
2018-11-28 07:45;156,9
2018-11-28 08:00;114,5
2018-11-28 08:15;119,4
2018-11-28 08:30;122,1
2018-11-28 08:45;131,85
2018-11-28 09:00;126,9
2018-11-28 09:15;145,8
2018-11-28 09:30;142,5
2018-11-28 09:45;147,3
2018-11-28 10:00;149,35
2018-11-28 10:15;149,35
2018-11-28 10:30;154,35
2018-11-28 10:45;153,05
2018-11-28 11:00;169,7
2018-11-28 11:15;193,65
2018-11-28 11:30;207,15
2018-11-28 11:45;199
2018-11-28 12:00;205,2
2018-11-28 12:15;199,95
2018-11-28 12:30;206,25
2018-11-28 12:45;194,2
2018-11-28 13:00;191,7
2018-11-28 13:15;196,2
2018-11-28 13:30;186,25
2018-11-28 13:45;188,05
2018-11-28 14:00;189,3
2018-11-28 14:15;184,2
2018-11-28 14:30;189,05
2018-11-28 14:45;187,65
2018-11-28 15:00;178,9
2018-11-28 15:15;183,8
2018-11-28 15:30;172,8
2018-11-28 15:45;169,2
2018-11-28 16:00;160,95
2018-11-28 16:15;154,6
2018-11-28 16:30;152,75
2018-11-28 16:45;150,2
2018-11-28 17:00;153,1
2018-11-28 17:15;154,1
2018-11-28 17:30;150,6
2018-11-28 17:45;150,55
2018-11-28 18:00;150,25
2018-11-28 18:15;150,65
2018-11-28 18:30;151,85
2018-11-28 18:45;148,95
2018-11-28 19:00;146,85
2018-11-28 19:15;137,95
2018-11-28 19:30;141,25
2018-11-28 19:45;141
2018-11-28 20:00;130,2
2018-11-28 20:15;122
2018-11-28 20:30;119,85
2018-11-28 20:45;119,6
2018-11-28 21:00;115,8
2018-11-28 21:15;111,25
2018-11-28 21:30;104,05
2018-11-28 21:45;96,1
2018-11-28 22:00;92,45
2018-11-28 22:15;94,2
2018-11-28 22:30;90,65
2018-11-28 22:45;89,9
2018-11-28 23:00;89,8
2018-11-28 23:15;88,95
2018-11-28 23:30;89
2018-11-28 23:45;93,9
2018-11-29 00:00;88,6
2018-11-29 00:15;87,9
2018-11-29 00:30;86,65
2018-11-29 00:45;85,45
2018-11-29 01:00;86,1
2018-11-29 01:15;86,3
2018-11-29 01:30;95,4
2018-11-29 01:45;97,5
2018-11-29 02:00;98,85
2018-11-29 02:15;100,25
2018-11-29 02:30;99
2018-11-29 02:45;95,65
2018-11-29 03:00;86,5
2018-11-29 03:15;90,75
2018-11-29 03:30;93,15
2018-11-29 03:45;91,95
2018-11-29 04:00;88
2018-11-29 04:15;88
2018-11-29 04:30;88,6
2018-11-29 04:45;90,2
2018-11-29 05:00;88,75
2018-11-29 05:15;89
2018-11-29 05:30;88,45
2018-11-29 05:45;86,1
2018-11-29 06:00;87,3
2018-11-29 06:15;87,1
2018-11-29 06:30;86,4
2018-11-29 06:45;98,35
2018-11-29 07:00;116,25
2018-11-29 07:15;119
2018-11-29 07:30;114,1
2018-11-29 07:45;158,95
2018-11-29 08:00;114,9
2018-11-29 08:15;123,25
2018-11-29 08:30;123,55
2018-11-29 08:45;132,65
2018-11-29 09:00;142,15
2018-11-29 09:15;148,55
2018-11-29 09:30;162,3
2018-11-29 09:45;165,7
2018-11-29 10:00;179,1
2018-11-29 10:15;196,3
2018-11-29 10:30;213,6
2018-11-29 10:45;218,9
2018-11-29 11:00;232,25
2018-11-29 11:15;234,4
2018-11-29 11:30;234
2018-11-29 11:45;242,45
2018-11-29 12:00;239,3
2018-11-29 12:15;242,9
2018-11-29 12:30;239,95
2018-11-29 12:45;253,3
2018-11-29 13:00;250,45
2018-11-29 13:15;254,8
2018-11-29 13:30;253,4
2018-11-29 13:45;265,1
2018-11-29 14:00;253,5
2018-11-29 14:15;261,2
2018-11-29 14:30;255,85
2018-11-29 14:45;265,15
2018-11-29 15:00;256,15
2018-11-29 15:15;252,6
2018-11-29 15:30;245
2018-11-29 15:45;232,6
2018-11-29 16:00;221,5
2018-11-29 16:15;211,7
2018-11-29 16:30;196,35
2018-11-29 16:45;191,4
2018-11-29 17:00;186,35
2018-11-29 17:15;183,35
2018-11-29 17:30;181,95
2018-11-29 17:45;177,9
2018-11-29 18:00;178,25
2018-11-29 18:15;173,85
2018-11-29 18:30;167,95
2018-11-29 18:45;163,2
2018-11-29 19:00;161,2
2018-11-29 19:15;154,8
2018-11-29 19:30;150,7
2018-11-29 19:45;149,95
2018-11-29 20:00;145,2
2018-11-29 20:15;137,25
2018-11-29 20:30;127
2018-11-29 20:45;126,2
2018-11-29 21:00;120,9
2018-11-29 21:15;117,45
2018-11-29 21:30;110,45
2018-11-29 21:45;103,2
2018-11-29 22:00;99,2
2018-11-29 22:15;101,3
2018-11-29 22:30;98,9
2018-11-29 22:45;99,6
2018-11-29 23:00;97,55
2018-11-29 23:15;97,55
2018-11-29 23:30;98
2018-11-29 23:45;99,85
2018-11-30 00:00;96,8
2018-11-30 00:15;100,25
2018-11-30 00:30;104,15
2018-11-30 00:45;100,8
2018-11-30 01:00;100,45
2018-11-30 01:15;100,6
2018-11-30 01:30;102
2018-11-30 01:45;103,55
2018-11-30 02:00;112,55
2018-11-30 02:15;113,6
2018-11-30 02:30;109,5
2018-11-30 02:45;107,95
2018-11-30 03:00;107,25
2018-11-30 03:15;109,9
2018-11-30 03:30;113,25
2018-11-30 03:45;130,85
2018-11-30 04:00;134,75
2018-11-30 04:15;133,5
2018-11-30 04:30;126,45
2018-11-30 04:45;118,7
2018-11-30 05:00;110,75
2018-11-30 05:15;104,5
2018-11-30 05:30;100,15
2018-11-30 05:45;98,6
2018-11-30 06:00;99,6
2018-11-30 06:15;114,65
2018-11-30 06:30;97,45
2018-11-30 06:45;98,85
2018-11-30 07:00;97,8
2018-11-30 07:15;101,25
2018-11-30 07:30;104,25
2018-11-30 07:45;135,4
2018-11-30 08:00;118,55
2018-11-30 08:15;123,9
2018-11-30 08:30;135,5
2018-11-30 08:45;148,8
2018-11-30 09:00;166
2018-11-30 09:15;185,05
2018-11-30 09:30;192,7
2018-11-30 09:45;205,25
2018-11-30 10:00;215,6
2018-11-30 10:15;220,05
2018-11-30 10:30;222,75
2018-11-30 10:45;223,25
2018-11-30 11:00;262,65
2018-11-30 11:15;270,2
2018-11-30 11:30;273,05
2018-11-30 11:45;275,65
2018-11-30 12:00;264,05
2018-11-30 12:15;259,05
2018-11-30 12:30;261,2
2018-11-30 12:45;278,3
2018-11-30 13:00;302,55
2018-11-30 13:15;260
2018-11-30 13:30;258,2
2018-11-30 13:45;252,55
2018-11-30 14:00;245,5
2018-11-30 14:15;254,05
2018-11-30 14:30;251,45
2018-11-30 14:45;237,85
2018-11-30 15:00;233,75
2018-11-30 15:15;222,9
2018-11-30 15:30;223,45
2018-11-30 15:45;209,45
2018-11-30 16:00;201,15
2018-11-30 16:15;190,75
2018-11-30 16:30;188,8
2018-11-30 16:45;187,7
2018-11-30 17:00;189,05
2018-11-30 17:15;185,95
2018-11-30 17:30;184,4
2018-11-30 17:45;188,3
2018-11-30 18:00;179,4
2018-11-30 18:15;170,5
2018-11-30 18:30;167,7
2018-11-30 18:45;161,9
2018-11-30 19:00;161,15
2018-11-30 19:15;152,1
2018-11-30 19:30;144,05
2018-11-30 19:45;138,2
2018-11-30 20:00;136,5
2018-11-30 20:15;133,25
2018-11-30 20:30;131,35
2018-11-30 20:45;132,65
2018-11-30 21:00;129,4
2018-11-30 21:15;128
2018-11-30 21:30;120,45
2018-11-30 21:45;103,05
2018-11-30 22:00;97,3
2018-11-30 22:15;95,55
2018-11-30 22:30;94,25
2018-11-30 22:45;93,35
2018-11-30 23:00;92,15
2018-11-30 23:15;88,25
2018-11-30 23:30;83,65
2018-11-30 23:45;85,75
2018-12-01 00:00;82,15
2018-12-01 00:15;80,2
2018-12-01 00:30;81,45
2018-12-01 00:45;81,5
2018-12-01 01:00;81,55
2018-12-01 01:15;81,6
2018-12-01 01:30;82,7
2018-12-01 01:45;81,55
2018-12-01 02:00;82,45
2018-12-01 02:15;80,6
2018-12-01 02:30;81
2018-12-01 02:45;79,2
2018-12-01 03:00;82,15
2018-12-01 03:15;80,9
2018-12-01 03:30;79,85
2018-12-01 03:45;77,4
2018-12-01 04:00;77,15
2018-12-01 04:15;77,6
2018-12-01 04:30;79,6
2018-12-01 04:45;77,8
2018-12-01 05:00;76,7
2018-12-01 05:15;73,8
2018-12-01 05:30;74,95
2018-12-01 05:45;74,8
2018-12-01 06:00;76,55
2018-12-01 06:15;75,65
2018-12-01 06:30;73,95
2018-12-01 06:45;73,4
2018-12-01 07:00;72,7
2018-12-01 07:15;73,15
2018-12-01 07:30;71,4
2018-12-01 07:45;72,85
2018-12-01 08:00;73
2018-12-01 08:15;72,1
2018-12-01 08:30;77,45
2018-12-01 08:45;76,75
2018-12-01 09:00;74,35
2018-12-01 09:15;75,05
2018-12-01 09:30;78,8
2018-12-01 09:45;82,85
2018-12-01 10:00;82,85
2018-12-01 10:15;81,6
2018-12-01 10:30;82,05
2018-12-01 10:45;83,05
2018-12-01 11:00;84,9
2018-12-01 11:15;87,6
2018-12-01 11:30;88,2
2018-12-01 11:45;90,2
2018-12-01 12:00;88,65
2018-12-01 12:15;92,4
2018-12-01 12:30;96,75
2018-12-01 12:45;91,8
2018-12-01 13:00;92,85
2018-12-01 13:15;90,45
2018-12-01 13:30;91,05
2018-12-01 13:45;90,65
2018-12-01 14:00;92,9
2018-12-01 14:15;93,25
2018-12-01 14:30;91,55
2018-12-01 14:45;89,25
2018-12-01 15:00;92,85
2018-12-01 15:15;92,55
2018-12-01 15:30;92,85
2018-12-01 15:45;92,15
2018-12-01 16:00;87,6
2018-12-01 16:15;89
2018-12-01 16:30;93,15
2018-12-01 16:45;99,9
2018-12-01 17:00;102,25
2018-12-01 17:15;105,2
2018-12-01 17:30;104,4
2018-12-01 17:45;102,7
2018-12-01 18:00;101,7
2018-12-01 18:15;96,25
2018-12-01 18:30;100,9
2018-12-01 18:45;101,4
2018-12-01 19:00;105,15
2018-12-01 19:15;100,1
2018-12-01 19:30;99,5
2018-12-01 19:45;94,9
2018-12-01 20:00;95,35
2018-12-01 20:15;94,8
2018-12-01 20:30;92,15
2018-12-01 20:45;94,85
2018-12-01 21:00;92,05
2018-12-01 21:15;88,9
2018-12-01 21:30;90,55
2018-12-01 21:45;90,85
2018-12-01 22:00;86,6
2018-12-01 22:15;86,95
2018-12-01 22:30;86,6
2018-12-01 22:45;88,5
2018-12-01 23:00;87,3
2018-12-01 23:15;87,6
2018-12-01 23:30;88,1
2018-12-01 23:45;90,35
2018-12-02 00:00;87,8
2018-12-02 00:15;85,4
2018-12-02 00:30;84,9
2018-12-02 00:45;84,65
2018-12-02 01:00;86,15
2018-12-02 01:15;85,2
2018-12-02 01:30;84,25
2018-12-02 01:45;83,65
2018-12-02 02:00;82,05
2018-12-02 02:15;82,05
2018-12-02 02:30;83,8
2018-12-02 02:45;82,05
2018-12-02 03:00;79,15
2018-12-02 03:15;79,05
2018-12-02 03:30;77,95
2018-12-02 03:45;78,45
2018-12-02 04:00;77,35
2018-12-02 04:15;77,85
2018-12-02 04:30;77,8
2018-12-02 04:45;76,45
2018-12-02 05:00;77,3
2018-12-02 05:15;76,6
2018-12-02 05:30;75,7
2018-12-02 05:45;76,65
2018-12-02 06:00;76
2018-12-02 06:15;75,8
2018-12-02 06:30;75,85
2018-12-02 06:45;75,05
2018-12-02 07:00;74,2
2018-12-02 07:15;72,7
2018-12-02 07:30;75,3
2018-12-02 07:45;73,55
2018-12-02 08:00;72,15
2018-12-02 08:15;71,25
2018-12-02 08:30;69,15
2018-12-02 08:45;71,15
2018-12-02 09:00;74,75
2018-12-02 09:15;75,2
2018-12-02 09:30;76,9
2018-12-02 09:45;75,1
2018-12-02 10:00;77
2018-12-02 10:15;74,65
2018-12-02 10:30;74,4
2018-12-02 10:45;76,2
2018-12-02 11:00;80,85
2018-12-02 11:15;83,95
2018-12-02 11:30;81,7
2018-12-02 11:45;83,35
2018-12-02 12:00;84,35
2018-12-02 12:15;85,15
2018-12-02 12:30;88,4
2018-12-02 12:45;86,15
2018-12-02 13:00;82,55
2018-12-02 13:15;82,1
2018-12-02 13:30;82,05
2018-12-02 13:45;82,55
2018-12-02 14:00;83,2
2018-12-02 14:15;82,35
2018-12-02 14:30;85,05
2018-12-02 14:45;86,5
2018-12-02 15:00;88,5
2018-12-02 15:15;85,2
2018-12-02 15:30;82,15
2018-12-02 15:45;85,35
2018-12-02 16:00;85
2018-12-02 16:15;83,2
2018-12-02 16:30;85,3
2018-12-02 16:45;86,95
2018-12-02 17:00;85,95
2018-12-02 17:15;88,7
2018-12-02 17:30;86,35
2018-12-02 17:45;89,05
2018-12-02 18:00;89,4
2018-12-02 18:15;94,15
2018-12-02 18:30;94,65
2018-12-02 18:45;95,9
2018-12-02 19:00;101,8
2018-12-02 19:15;100
2018-12-02 19:30;93,8
2018-12-02 19:45;96,95
2018-12-02 20:00;95,05
2018-12-02 20:15;92,65
2018-12-02 20:30;96,65
2018-12-02 20:45;95,65
2018-12-02 21:00;97,2
2018-12-02 21:15;91,45
2018-12-02 21:30;90,2
2018-12-02 21:45;86,55
2018-12-02 22:00;81,95
2018-12-02 22:15;81,65
2018-12-02 22:30;82,15
2018-12-02 22:45;81,55
2018-12-02 23:00;81,75
2018-12-02 23:15;82,95
2018-12-02 23:30;83
2018-12-02 23:45;85,05

